Location: Unspecified
(0.0000°N, 0.0000°E)
Time: 19:35:13
(UTC+00:00)

Vanguard 1 Rocket - Pass Details

Date: 19 April 2026
Orbit: 655 x 4212 km, 34.3° (Epoch: 17 May)

Event Time Altitude Azimuth Distance (km) Brightness Sun altitude
Rises 19:39:35 0° 256° (WSW) 6,370 12.7 -24.6°
Reaches altitude 10° 19:43:29 10° 262° (W) 5,762 12.4 -25.5°
Maximum altitude 20:02:07 46° 330° (NNW) 4,768 11.1 -30.1°
Drops below altitude 10° 20:26:37 10° 38° (NE) 7,219 11.7 -36.0°
Sets 20:32:30 0° 44° (NE) 7,995 12.0 -37.5°
